This is the latest recevied weather packets stored in our database for station/object HP2BWJ-13. If no packets are shown the sender has not sent any weather packets the latest 10 day(s).
| Time | Temp. | Humidity | Pressure | Rain* | Wind** | Luminosity | Snow |
|---|---|---|---|---|---|---|---|
| 1777706630 | 25.56° C | 89% | 1008 hPa | 5.08 mm | - | - | - |
| 1777706569 | 25.56° C | 89% | 1008 hPa | 5.08 mm | - | - | - |
| 1777705429 | 23.33° C | 89% | 1009 hPa | 4.32 mm | - | - | - |
| 1777705369 | 23.33° C | 89% | 1009 hPa | 4.32 mm | - | - | - |
| 1777704228 | 23.89° C | 89% | 1008 hPa | 5.84 mm | - | - | - |
| 1777704168 | 23.89° C | 89% | 1008 hPa | 5.84 mm | - | - | - |
| 1777703027 | 24.44° C | 89% | 1009 hPa | 3.3 mm | - | - | - |
| 1777702967 | 24.44° C | 89% | 1009 hPa | 3.3 mm | - | - | - |
| 1777701826 | 25° C | 89% | 1009 hPa | 3.56 mm | - | - | - |
| 1777701766 | 25° C | 89% | 1009 hPa | 3.56 mm | - | - | - |
| 1777700626 | 25.56° C | 89% | 1008 hPa | 3.81 mm | - | - | - |
| 1777700565 | 25.56° C | 89% | 1008 hPa | 3.81 mm | - | - | - |
| 1777699425 | 26.11° C | 89% | 1009 hPa | 1.02 mm | - | - | - |
| 1777699365 | 26.11° C | 89% | 1009 hPa | 1.02 mm | - | - | - |
| 1777698224 | 26.67° C | 89% | 1009 hPa | 0.25 mm | - | - | - |
| 1777698163 | 26.67° C | 89% | 1009 hPa | 0.25 mm | - | - | - |
| 1777697023 | 27.22° C | 89% | 1009 hPa | 0 mm | - | - | - |
| 1777696963 | 27.22° C | 89% | 1009 hPa | 0 mm | - | - | - |
| 1777695822 | 27.78° C | 89% | 1009 hPa | 0 mm | - | - | - |
| 1777695762 | 27.78° C | 89% | 1009 hPa | 0 mm | - | - | - |
| 1777694622 | 28.33° C | 89% | 1009 hPa | 0 mm | - | - | - |
| 1777694561 | 28.33° C | 89% | 1009 hPa | 0 mm | - | - | - |
| 1777693421 | 28.89° C | 89% | 1009 hPa | 0 mm | - | - | - |
| 1777693360 | 28.89° C | 89% | 1009 hPa | 0 mm | - | - | - |
| 1777692219 | 23.89° C | 90% | 1010 hPa | 0 mm | - | - | - |
* Rain latest hour (hover to see other rain measurements)
** Current wind speed in m/s (hover to see current wind gust speed)